Regional Weather Roundup
Issued by NWS

Home | Current Version | Previous Version | Graphics & Text | Print | Product List | Glossary On
Versions: 1 2 3 4 5 6 7 8 9 10 11 12 13 14 15 16 17 18 19 20 21 22 23 24 25 26 27
000
ASUS45 KSLC 220710
RWRUT

UTAH REGIONAL WEATHER ROUNDUP
NATIONAL WEATHER SERVICE SALT LAKE CITY UT
100 AM MDT FRI SEP 22 2017

UTZ001>011-023>025-220800-

NORTHERN UTAH

CITY           SKY/WX    TMP DP  RH WIND       PRES   REMARKS
BRIGHAM CITY   CLOUDY    41  38  88 N6        29.85R
HILL AFB       CLOUDY    39  36  90 SW3       29.81F
LOGAN          CLOUDY    40  37  89 SW6       29.83S
OGDEN          CLOUDY    40  37  89 S5        29.83S
SALT LAKE CITY CLOUDY    41  38  89 S12       29.82F
TOOELE VALLEY  CLOUDY    39  37  93 S12       29.85S WCI  32
WENDOVER       LGT RAIN  42  39  89 NW6       29.85F
HEBER CITY     MIX PCPN  39  36  87 CALM      29.83S
WEST JORDAN    CLOUDY    37  37 100 SW9       29.84F WCI  31

$$

UTZ011>015-024>027-220800-

CENTRAL/NORTHEAST UTAH

CITY           SKY/WX    TMP DP  RH WIND       PRES   REMARKS
PROVO AIRPORT  LGT RAIN  41  39  93 E5        29.85F
MOAB/CANYONLAN PTCLDY    74  26  16 S17G32    29.64R
DELTA          CLOUDY    36  36 100 W3        29.83F
PRICE          MOCLDY    61  32  33 S12       29.69R
ROOSEVELT      PTCLDY    59  34  38 SW12      29.67S
VERNAL         CLEAR     63  33  32 SW10      29.64R

$$

UTZ013>016-019>022-027-220800-

SOUTHERN UTAH

CITY           SKY/WX    TMP DP  RH WIND       PRES   REMARKS
BRYCE CANYON   PTCLDY    51  33  50 S16G25    29.84S
CEDAR CITY     HVY RAIN  38  38 100 CALM      29.87R FOG
MILFORD        LGT RAIN  38  37  97 NW10      29.86R WCI  31
ST GEORGE      CLOUDY    63  41  44 W16       29.72R
HANKSVILLE     CLOUDY    72  34  25 SW33G43   29.68R
BLANDING         N/A     64  30  28 S18       29.93S

$$

REGIONAL REPORTS     COLORADO/ARIZONA

CITY           SKY/WX    TMP DP  RH WIND       PRES   REMARKS
CRAIG, CO      CLEAR     50  29  44 VRB3      29.77S
GRAND JUNCTION PTCLDY    74  24  15 SE9G31    29.72S
RIFLE, CO      CLEAR     73  17  12 SW12G24   29.76S
MONTROSE, CO   CLEAR     67  23  19 SE3       29.83S
CORTEZ, CO     CLEAR     65  32  29 S18       29.91R
PAGE, AZ       PTCLDY    71  39  31 S14G21    29.71R
GRAND CANYON   PTCLDY    53  34  48 SW12G21   29.89F
KINGMAN, AZ    CLEAR     62  41  46 SW10      29.77S
FLAGSTAFF, AZ  CLEAR     54  36  50 SW14G24   29.93F

$$

REGIONAL REPORTS    NEVADA/IDAHO/WYOMING

CITY           SKY/WX    TMP DP  RH WIND       PRES   REMARKS
LAS VEGAS, NV  PTCLDY    65  26  23 SW7       29.74R
ELY, NY        CLOUDY    33  32  96 CALM      29.85F
ELKO, NV       CLOUDY    39  35  86 S3        29.85F
POCATELLO, ID  CLOUDY    42  41  96 SW8       29.83S
BURLEY, ID     LGT RAIN  43  40  89 SW6       29.82R
FORT BRIDGER,  CLOUDY    38  37  98 W25G35    29.81F WCI  26
EVANSTON, WY   SNOW      33  33 100 SW12      29.83S VSB 1/2 WCI  24
ROCK SPRINGS,  CLOUDY    48  39  71 NW13      29.78R
KEMMERER, WY     N/A     36  34  93 W15G25    29.80S WCI  26

$$




USA.gov is the U.S. government's official web portal to all federal, state and local government web resources and services.